Location: Caltech
(34.1382°N, 118.1253°W)
Time: 21:14:36
(UTC-08:00)

Sapphire - Visible Passes

Search period start: 25 November 2014 00:00
Search period end: 05 December 2014 00:00
Orbit: 785 x 798 km, 67.1° (Epoch: 24 November)

Date Brightness Start Highest point End Pass type
(mag) Time Alt. Az. Time Alt. Az. Time Alt. Az.
25 Nov ? 04:47:56 14° NNW 04:52:25 49° ENE 04:57:38 10° SE visible
25 Nov ? 19:24:51 10° SSW 19:27:13 27° SSW 19:27:13 27° SSW visible
26 Nov ? 04:19:01 22° N 04:21:51 35° ENE 04:26:47 10° ESE visible
26 Nov ? 06:00:37 10° NW 06:05:04 26° WSW 06:09:29 10° SSW visible
26 Nov ? 18:54:27 10° SSW 18:58:35 52° S 18:58:35 52° S visible
27 Nov ? 03:50:12 24° NE 03:51:15 26° NE 03:55:43 10° ESE visible
27 Nov ? 05:31:00 17° NW 05:34:43 37° WSW 05:39:39 10° S visible
27 Nov ? 18:24:14 10° S 18:29:24 48° ESE 18:29:54 47° E visible
27 Nov ? 20:09:02 10° W 20:10:42 16° W 20:10:42 16° W visible
28 Nov ? 03:21:27 19° ENE 03:21:27 19° ENE 03:24:25 10° E visible
28 Nov ? 05:02:16 34° NW 05:04:19 54° WSW 05:09:34 10° S visible
28 Nov ? 17:54:13 10° S 17:59:01 34° ESE 18:01:09 25° ENE visible
28 Nov ? 19:37:48 10° WSW 19:41:58 28° WNW 19:41:58 28° WNW visible
29 Nov ? 04:33:35 74° WNW 04:33:54 77° WSW 04:39:17 10° SSE visible
29 Nov ? 17:24:27 10° SSE 17:28:40 24° ESE 17:32:20 12° ENE visible
29 Nov ? 19:06:48 10° SW 19:11:49 38° WNW 19:13:08 33° NNW visible
30 Nov ? 04:04:57 48° SE 04:04:57 48° SE 04:08:50 10° SSE visible
30 Nov ? 05:45:46 11° W 05:46:06 11° WSW 05:47:25 10° WSW visible
30 Nov ? 18:36:00 10° SW 18:41:16 54° WNW 18:44:13 25° N visible
01 Dec ? 03:36:20 22° SE 03:36:20 22° SE 03:38:13 10° SE visible
01 Dec ? 05:17:09 15° WSW 05:17:09 15° WSW 05:19:06 10° SW visible
01 Dec ? 18:05:22 10° SSW 18:10:46 76° WNW 18:15:13 16° NNE visible
01 Dec ? 19:54:34 10° NW 19:55:05 10° NW 19:55:36 10° NW visible
02 Dec ? 04:48:32 15° SSW 04:48:32 15° SSW 04:49:44 10° SSW visible
02 Dec ? 17:34:55 10° SSW 17:40:18 78° ESE 17:45:44 10° NNE visible
02 Dec ? 19:21:32 10° W 19:24:19 14° NW 19:26:55 11° NNW visible
03 Dec ? 04:19:54 10° S 04:19:54 10° S 04:19:59 10° S visible
03 Dec ? 17:04:38 10° S 17:09:52 54° ESE 17:15:09 10° NE visible
03 Dec ? 18:49:49 10° W 18:53:37 19° NW 18:57:25 10° N visible
04 Dec ? 18:18:30 10° WSW 18:22:57 26° NW 18:27:26 10° N visible
